Location: Crescent
(42.8242°N, 73.7329°W)
Time: 04:32:11
(UTC+00:00)

A-11 Canister half - Pass Details

Date: 23 February 2026
Orbit: 1524 x 1683 km, 47.3° (Epoch: 14 March)

Event Time Altitude Azimuth Distance (km) Brightness Sun altitude
Rises 23:15:35 0° 281° (WNW) 4,706 13.3 -7.8°
Reaches altitude 10° 23:18:41 10° 284° (WNW) 3,711 12.4 -8.4°
Maximum altitude 23:28:00 70° 8° (N) 1,610 9.1 -10.1°
Enters shadow 23:36:19 14° 91° (E) 3,394 10.1 -11.6°
